Home   Weather   Torrevieja   Past weeks

Flag for Spain Past Weather in Torrevieja, Spain — Yesterday and Last 2 Weeks

Now
72 °F

Mild.


Feels Like: 73 °F
Forecast: 63 / 82 °F
Wind: 7 mph from Northeast

Location: Murcia / San Javier

Current Time: Sep 30, 2016 at 3:36:04 AM

Latest Report: Sep 30, 2016 at 3:00 AM


Visibility: N/A

Pressure: 30.12 "Hg

Humidity: 79%

Dew Point: 65 °F

Location of TorreviejaLocation

Past Weather in Torrevieja — Graph

°F

Torrevieja Temperature Yesterday

Maximum temperature yesterday: 80 °F (at 2:00 PM)
Minimum temperature yesterday: 68 °F (at 12:00 AM)
Average temperature yesterday: 75 °F

High & Low Weather Summary for the Past Weeks

 TemperatureHumidityPressure
High89 °F (Sep 16, 4:00 PM)95% (Sep 29, 12:00 AM)30.32 "Hg (Sep 29, 12:00 AM)
Low58 °F (Sep 15, 6:00 AM)19% (Sep 16, 4:00 PM)29.93 "Hg (Sep 20, 6:00 PM)
Average74 °F70%30.11 "Hg
* Reported Sep 15 2:00 AM — Sep 30 2:00 AM, Torrevieja, Weather by CustomWeather, © 2016

Note: Actual official high and low records may vary slightly from our data, if they occured in-between our weather recording intervals... More about our weather records

Advertising

Torrevieja Weather History for the Previous 24 Hours

Scroll right to see more
 ConditionsComfort  
Time TempWeatherWind HumidityBarometerVisibility
2:00 AM
Fri, Sep 30
74 °FMild.10 mph77%30.14 "HgN/A
1:00 AM74 °FMild.12 mph77%30.16 "HgN/A
12:00 AM75 °FMild.13 mph78%30.17 "HgN/A
10:00 PM
Thu, Sep 29
74 °FMild.15 mph78%30.17 "HgN/A
9:00 PM74 °FMild.15 mph81%30.16 "HgN/A
8:00 PM74 °FPassing clouds.15 mph81%30.17 "Hg19 mi
7:00 PM75 °FMild.16 mph81%30.18 "HgN/A
6:00 PM74 °FFog.16 mph81%30.19 "HgN/A
4:00 PM78 °FWarm.16 mph71%30.21 "HgN/A
3:00 PM80 °FWarm.14 mph68%30.22 "HgN/A
2:00 PM80 °FPassing clouds.15 mph67%30.24 "Hg31 mi
1:00 PM80 °FWarm.14 mph64%30.27 "HgN/A
9:00 AM72 °FMild.15 mph80%30.28 "HgN/A
8:00 AM74 °FScattered clouds.16 mph77%30.27 "Hg31 mi
7:00 AM75 °FMild.16 mph76%30.27 "HgN/A
6:00 AM74 °FMild.16 mph80%30.27 "HgN/A
4:00 AM74 °FMild.16 mph80%30.29 "HgN/A
3:00 AM74 °FMild.18 mph81%30.30 "HgN/A
Weather by CustomWeather, © 2016

See weather overviewHow to use our weather pages